Terminal Aerodrome Forecast
Issued by NWS

Home | Current Version | Previous Version | Text Only | Print | Product List | Glossary On
Versions: 1 2 3 4 5 6 7 8 9 10 11 12 13 14 15 16
000
FTUS46 KLOX 181600 AAC
TAFPRB
TAF AMD
KPRB 181601Z 1816/1912 18005KT P6SM OVC021
     FM181700 23006KT P6SM BKN025
     FM181900 22007KT P6SM SCT025
     FM182200 20015KT P6SM SKC
     FM190400 20008KT P6SM SKC
     FM190700 30007KT P6SM BKN015
     FM191100 VRB03KT P6SM OVC015=

USA.gov is the U.S. government's official web portal to all federal, state and local government web resources and services.